Location: Aufkirchen
(47.9603°N, 11.3653°E)
Time: 14:02:35
(UTC+01:00)

XW-2B - Visible Passes

Search period start: 16 January 2021 00:00
Search period end: 26 January 2021 00:00
Orbit: 506 x 526 km, 97.5° (Epoch: 16 January)

Date Brightness Start Highest point End Pass type
(mag) Time Alt. Az. Time Alt. Az. Time Alt. Az.
16 Jan ? 05:10:09 10° ENE 05:12:03 13° E 05:13:57 10° ESE visible
16 Jan ? 06:42:43 10° N 06:46:27 55° WNW 06:50:11 10° SSW visible
16 Jan ? 17:25:59 10° S 17:29:42 73° WSW 17:33:27 10° NNW visible
17 Jan ? 06:27:55 10° NNE 06:31:45 83° WNW 06:35:33 10° SSW visible
18 Jan ? 06:13:12 10° NNE 06:17:01 67° ESE 06:20:48 10° S visible
18 Jan ? 18:32:37 10° WSW 18:34:38 14° W 18:36:40 10° WNW visible
19 Jan ? 05:58:34 10° NNE 06:02:15 44° E 06:05:54 10° S visible
19 Jan ? 18:16:58 10° SW 18:19:46 20° W 18:22:35 10° NW visible
20 Jan ? 05:44:01 10° NNE 05:47:27 31° E 05:50:51 10° SSE visible
20 Jan ? 07:18:17 10° NNW 07:21:23 24° WNW 07:24:29 10° WSW visible
20 Jan ? 18:01:40 10° SSW 18:04:54 28° W 18:08:13 10° NW visible
21 Jan ? 05:29:37 10° NE 05:32:37 22° E 05:35:36 10° SE visible
21 Jan ? 07:03:17 10° N 07:06:45 33° WNW 07:10:12 10° SW visible
21 Jan ? 17:46:33 10° S 17:50:06 41° W 17:53:42 10° NNW visible
22 Jan ? 05:15:26 10° NE 05:17:45 15° E 05:20:03 10° SE visible
22 Jan ? 06:48:23 10° N 06:52:05 48° WNW 06:55:45 10° SW visible
22 Jan ? 17:31:38 10° S 17:35:19 62° WSW 17:39:04 10° NNW visible
23 Jan ? 05:02:00 10° ENE 05:02:51 11° E 05:03:42 10° E visible
23 Jan ? 06:33:33 10° N 06:37:23 71° WNW 06:41:11 10° SSW visible
24 Jan ? 06:18:48 10° NNE 06:22:39 78° ESE 06:26:28 10° S visible
24 Jan ? 18:38:42 10° WSW 18:40:18 12° W 18:41:54 10° WNW visible
25 Jan ? 06:04:07 10° NNE 06:07:53 52° E 06:11:37 10° S visible
25 Jan ? 18:22:49 10° SW 18:25:24 18° W 18:28:00 10° NW visible
